Miscellaneous Local Product
Issued by NWS North Platte, NE

Home | Current Version | Previous Version | Graphics & Text | Print | Product List | Glossary On
Versions: 1 2 3 4 5 6 7 8 9 10 11 12 13 14 15 16 17 18 19 20 21 22 23 24 25 26 27 28 29 30 31 32 33 34 35 36 37 38 39 40 41 42 43 44 45 46 47 48 49 50
797
AXUS43 KLBF 220010
MISLBF


WESTERN AND NORTH CENTRAL NEBRASKA HOURLY WEATHER ROUNDUP
NATIONAL WEATHER SERVICE NORTH PLATTE NE
700 PM CDT MON AUG 21 2017

NOTE: "FAIR" INDICATES FEW OR NO CLOUDS BELOW 12,000 FEET WITH NO
SIGNIFICANT WEATHER AND/OR OBSTRUCTIONS TO VISIBILITY.

NOTE: STATIONS NOT REPORTING VARIABLES SUCH AS SKY/WEATHER OR
PRESSURE ARE PROVIDED BY RAWS AND APRS NETWORKS AND ARE NOT UNDER
NATIONAL WEATHER SERVICE QUALITY CONTROL.

...OBSERVATIONS IN AND NEAR THE EASTERN PANHANDLE OF NEBRASKA...

CITY           SKY/WX    TMP DP  RH WIND       PRES   REMARKS
PINE RIDGE     SUNNY     79  45  29 N14       30.13R
GORDON         FAIR      78  49  35 N14G21    30.12R
CHADRON        SUNNY     79  39  23 NE15      30.13R
ALLIANCE       SUNNY     78  49  35 N16       30.12R
SIDNEY         SUNNY     82  48  30 N17       30.15R
$$

...OBSERVATIONS IN NORTHERN NEBRASKA AND FAR SOUTHERN SOUTH DAKOTA...

CITY           SKY/WX    TMP DP  RH WIND       PRES   REMARKS
WINNER         FAIR      78  66  66 N10       30.03R
VALENTINE      MOSUNNY   80  57  45 N16G23    30.06R
THEDFORD       CLOUDY    76  67  74 N8        30.07S
AINSWORTH      CLOUDY    74  67  78 N8        30.05S
O`NEILL        CLOUDY    71  67  88 NE9       30.02S
ORD            MOSUNNY   76  66  71 N8        29.96R
BROKEN BOW     PTSUNNY   79  67  66 N13       29.99R
VALENTINE NWR    N/A     75  64  70 N7G17       N/A
HALSEY           N/A     75  66  74 N5          N/A
BUTTE            N/A     72  65  78 MISG        N/A
CHAMBERS         N/A     72  65  80 N5          N/A
EWING            N/A     67  65  92 NE5G13      N/A
$$

...OBSERVATIONS IN SOUTHWEST NEBRASKA AND FAR NORTHEAST COLORADO...

CITY           SKY/WX    TMP DP  RH WIND       PRES   REMARKS
HOLYOKE        FAIR      84  61  45 N14       30.08R
IMPERIAL       MOSUNNY   84  65  52 N13       30.03R
OGALLALA       SUNNY     82  64  54 N15       30.06R
NORTH PLATTE   PTSUNNY   80  69  69 N17G24    30.01R
MCCOOK         MOSUNNY   87  64  46 E6        29.96R
LEXINGTON      PTSUNNY   86  68  54 CALM      29.96S
STAPLETON        N/A     77  67  70 MISG        N/A
GOTHENBURG       N/A     88  63  43 N3          N/A
CALLAWAY         N/A     82  72  72 N12         N/A
$$

...OBSERVATIONS IN CENTRAL LINCOLN COUNTY AREA...

CITY           SKY/WX    TMP DP  RH WIND       PRES   REMARKS
N.P. AIRPORT   PTSUNNY   80  69  69 N17G24    30.01R
N.P. DOWNTOWN    N/A     79  68  69 NE9G17      N/A
N.P. SOUTHEAST   N/A     80  69  68 N7G15       N/A
N.P. HILLCREST   N/A     78  69  73 NE20        N/A
$$

...SOME OBSERVATIONS FROM AROUND THE REGION...

CITY           SKY/WX    TMP DP  RH WIND       PRES   REMARKS
DENVER         PTSUNNY   83  44  25 NE8G20    30.19S
LIMON          SUNNY     81  48  31 N16       30.18R
ASPEN          CLOUDY    73  39  29 SE13G24   30.33R
LARAMIE        CLOUDY    79  31  17 N12G21    30.29R
CASPER         SUNNY     81  35  19 E13       30.19S
CHEYENNE       SUNNY     76  38  25 NE15      30.24S
SCOTTSBLUFF    SUNNY     82  47  29 NE8       30.14R
GRAND ISLAND   PTSUNNY   84  70  62 S13       29.93S
OMAHA          CLOUDY    81  72  74 E13       29.93F
SIOUX FALLS    PTSUNNY   71  66  84 SW6       29.98S
PIERRE         SUNNY     78  46  32 N17G26    30.01R
RAPID CITY     SUNNY     78  38  23 N17       30.14R
BISMARCK       SUNNY     75  39  27 NW13G26   30.05R
KANSAS CITY    PTSUNNY   77  73  87 SE7       29.95F
HILL CITY      SUNNY     90  63  40 W8        29.93R HX  91
WICHITA        PTSUNNY   91  69  48 S15       29.94F HX  96
DODGE CITY     MOSUNNY   85  63  47 SW22G30   29.99S
OKLAHOMA CITY  MOSUNNY   88  69  53 S13       30.01F HX  92
DALLAS         MOSUNNY   93  68  43 S9        29.99F HX  97
AMARILLO       SUNNY     83  62  49 SW14      30.11S
$$




USA.gov is the U.S. government's official web portal to all federal, state and local government web resources and services.